Location: Jackson Park
(37.2862°N, 79.9123°W)
Time: 02:41:43
(UTC+00:00)

Tiros 1 despin weight - Pass Details

Date: 10 May 2026
Orbit: 554 x 591 km, 48.2° (Epoch: 6 June)

Event Time Altitude Azimuth Distance (km) Brightness Sun altitude
Rises 10:15:20 0° 186° (S) 2,742 ? -0.8°
Reaches altitude 10° 10:18:39 10° 159° (SSE) 1,842 ? -0.2°
Maximum altitude 10:20:39 13° 131° (SE) 1,644 ? 0.1°
Drops below altitude 10° 10:22:39 10° 102° (ESE) 1,839 ? 0.5°
Sets 10:25:56 0° 75° (ENE) 2,732 ? 1.1°
